Retour au catalogue

STARLINK-34672

ActifCommunicationsVLEO
NORAD 65894·PAYLOAD·🇺🇸 United States

Lancé Oct 7, 2025 depuis Cape Canaveral Space Force Station

Loading…

Prochains Passages (prochaines 24 heures)

TLE

FraisSource: CelesTrak SupGP

Époque: Sep 15, 2026, 04:01 UTC

1 65894C 25224N   26258.16784722 -.00065296  00000+0 -19294-2 0  2581
2 65894  53.1587 210.7903 0001380  91.0208 158.2951 15.34419506    17

Suivez STARLINK-34672 en temps réel avec AllMySat

Download on the App Store